Showing default

YUNYAO-1 48, 63349

Orbit data source: Space-Track

YUNYAO-1 48, 63349 is a payload satellite owned by Yunyao yuhang (CN) in SSO that was launched on Fri, 21 Mar 2025 UTC via a GUSHENXING 1 launch vehicle from the Jiuquan Satellite Launch Center, China (JSC). Payload-class satellites include a variety of spacecraft equipped with specific instruments for various scientific and technological missions. These include communications satellites like Starlink; space stations such as the ISS; scientific satellites like the Hubble; Earth observation satellites from companies like Planet Labs, Umbra, and HawkEye 360; GPS; miniature CubeSats for education and research; and military/defense satellites.

Loading next visibility...
Identifier
63349, 2025-059F
Orbit
SSO
Last TLE update
10 hours ago
Origin
Manufacturer
Changguang WJ
Mission
Operational spacecraft
Bus & Motor
YY-1, Unknown motor
Mass
~50 kg wet, ~50 kg dry
Launch date (UTC)
2025-03-21 (3 months ago)
Launch vehicle
GUSHENXING 1
Launch site
Jiuquan Satellite Launch Center, China (JSC)
Object type
Payload
Rocket body
Debris
Shape & HBR
Unknown
Radar Cross Section
Medium (>0.1 m² and <1 m²)

Expand to show TLE details & history

TLE from 10 hours ago
0 YUNYAO-1 48
1 63349U 25059F   25181.86006721  .00002216  00000-0  14755-3 0  9999
2 63349  97.6001   1.1465 0015001 284.3139  75.6423 15.08074352 15293
Epoch: 2025-06-30T20:38Z
TLE epoch observation values (Epoch: 2025-06-30T20:38:29.806Z)
Latitude
-0.00008°
Longitude
132.3585°
Altitude
542.593 km
Speed
7.592 km/s
True Right ascension
00h 04m 35s
True Declination
0° 00' 00"
Sunlit
Object was in daylight at epoch
Visualization orbit readout
Latitude
-5.82021°
Longitude
133.52613°
Altitude
542.75 km
Speed
7.592 km/s
Apparent Right ascension
02h 23m 40s
Apparent Declination
-28° 25' 02"
Sunlit
Object is in daylight
Visualization observer readout
Local Sidereal Time
17:47:58
Azimuth
90.871° ESE
Elevation
-46.82°
Doppler factor
1
Orbital elements
Apogee altitude
549.451 km
Perigee altitude
528.698 km
Semi-major axis
6,917.212 km
Eccentricity
0.0015
Inclination
97.6001°
RAAN
1.1465°
Arg. of periapsis
284.3139°
True anomaly
Unknown
Mean anomaly
75.6423°
Eccentric anomaly
Unknown
Mean motion
3.77265 °/min
Orbital period
95.42 mins
BSTAR
0.00014755
Loading maneuver chart data...
Loading SW <> Apogee altitude chart data...
Loading historical data...
Loading historical data...
Loading historical data...
Loading historical data...
Loading historical data...
Loading historical data...
Loading historical data...
Other satellites on launch #59 in the year 2025 (2025-03-21 UTC)

YUNYAO-1 48 Visibility forecast

Observer location: undefined°, undefined°

Span
Click to sort rows by Start time (UTC) header in descending order
Start Az.
Max El. time (UTC)
Max El. Az.
Max El.
End time (UTC)
End Az.
5 mins2025-07-01 11:07:13.529Z114.539° SE2025-07-01 11:10:13.529Z60.99° ENE19.242°2025-07-01 11:12:13.529Z26.276° NE
5 mins2025-07-01 12:42:13.529Z218.58° SW2025-07-01 12:44:13.529Z262.11° W24.3°2025-07-01 12:47:13.529Z319.239° NNW
5 mins2025-07-02 00:18:13.529Z47.861° ENE2025-07-02 00:20:13.529Z98.698° ESE28.664°2025-07-02 00:23:13.529Z159.017° S
|